Location: Newark
(35.2161°N, 26.1013°E)
Time: 06:50:28
(UTC+00:00)

BEESAT 2 - Pass Details

Date: 30 January 2020
Orbit: 493 x 534 km, 64.9° (Epoch: 20 February)

Event Time Altitude Azimuth Distance (km) Brightness Sun altitude
Rises 16:38:08 0° 192° (SSW) 2,607 ? -11.9°
Reaches altitude 10° 16:40:21 10° 185° (S) 1,733 ? -12.4°
Maximum altitude 16:44:01 41° 114° (ESE) 761 ? -13.1°
Enters shadow 16:46:19 20° 54° (NE) 1,241 ? -13.6°
